DAL1046 KMSP-KATL

Flight info

Callsign DAL1046
Flight time 2h 2m
Altitude 35000
Route ZMBRO7 ODI J30 BRIBE/N0457F340 EDENS/N0458F350 ENL PLESS J45 BNA NEWBB IHAVE MTHEW CHPPR1
Aircraft A321/M-SDE3FGHIRWY/LB1

Departure

Time 2026-05-05 00:41
Airport Minneapolis–Saint Paul International Airport / Wold–Chamberlain Field (KMSP)

Arrival

Time 2026-05-05 02:43
Airport Hartsfield Jackson Atlanta International Airport (KATL)
Time Latitude Longitude Altitude Speed Heading
2026-05-05 00:14 44.87974 -93.20790 825 ft 0 kts 25°
2026-05-05 00:30 44.87973 -93.20790 825 ft 2 kts 25°
2026-05-05 00:30 44.87950 -93.20805 823 ft 4 kts 25°
2026-05-05 00:31 44.87926 -93.20821 824 ft 4 kts 28°
2026-05-05 00:31 44.87905 -93.20843 826 ft 4 kts 55°
2026-05-05 00:31 44.87897 -93.20874 824 ft 4 kts 102°
2026-05-05 00:31 44.87900 -93.20889 825 ft 0 kts 121°
2026-05-05 00:34 44.87899 -93.20887 825 ft 0 kts 120°
2026-05-05 00:34 44.87887 -93.20858 823 ft 9 kts 120°
2026-05-05 00:35 44.87831 -93.20729 826 ft 21 kts 123°
2026-05-05 00:35 44.87732 -93.20524 826 ft 27 kts 122°
2026-05-05 00:35 44.87639 -93.20309 825 ft 25 kts 121°
2026-05-05 00:35 44.87555 -93.20112 825 ft 22 kts 122°
2026-05-05 00:36 44.87499 -93.20032 826 ft 10 kts 171°
2026-05-05 00:36 44.87445 -93.20058 827 ft 2 kts 209°
2026-05-05 00:36 44.87445 -93.20059 827 ft 0 kts 209°
2026-05-05 00:39 44.87442 -93.20060 827 ft 3 kts 209°
2026-05-05 00:40 44.87384 -93.20110 828 ft 13 kts 218°
2026-05-05 00:40 44.87397 -93.20239 826 ft 19 kts 299°
2026-05-05 00:40 44.87558 -93.20596 825 ft 77 kts 302°
2026-05-05 00:40 44.87942 -93.21478 822 ft 132 kts 302°
2026-05-05 00:41 44.88490 -93.22726 1088 ft 152 kts 301°
2026-05-05 00:41 44.89035 -93.23983 1843 ft 148 kts 303°
2026-05-05 00:41 44.89440 -93.25266 2663 ft 142 kts 287°
2026-05-05 00:41 44.89317 -93.26723 3051 ft 172 kts 248°
2026-05-05 00:42 44.88276 -93.27832 3326 ft 214 kts 201°
2026-05-05 00:42 44.86691 -93.27636 3557 ft 250 kts 159°
2026-05-05 00:42 44.85206 -93.26091 3760 ft 283 kts 136°
2026-05-05 00:42 44.83835 -93.23969 4356 ft 297 kts 131°
2026-05-05 00:43 44.82531 -93.21749 5441 ft 293 kts 129°
2026-05-05 00:43 44.81236 -93.19548 6428 ft 292 kts 130°
2026-05-05 00:43 44.79856 -93.17376 7079 ft 302 kts 135°
2026-05-05 00:43 44.78361 -93.15263 7812 ft 307 kts 138°
2026-05-05 00:44 44.76793 -93.13165 8539 ft 313 kts 140°
2026-05-05 00:44 44.75183 -93.11063 9276 ft 318 kts 141°
2026-05-05 00:44 44.73546 -93.08933 9959 ft 323 kts 142°
2026-05-05 00:44 44.71862 -93.06740 10327 ft 340 kts 142°
2026-05-05 00:45 44.70069 -93.04399 10476 ft 363 kts 142°
2026-05-05 00:45 44.68189 -93.01932 10604 ft 385 kts 141°
2026-05-05 00:45 44.66185 -92.99289 10735 ft 406 kts 141°
2026-05-05 00:45 44.64085 -92.96509 11028 ft 420 kts 141°
2026-05-05 00:46 44.61949 -92.93668 11579 ft 426 kts 141°
2026-05-05 00:46 44.59786 -92.90793 12164 ft 430 kts 141°
2026-05-05 00:46 44.57601 -92.87892 12698 ft 435 kts 141°
2026-05-05 00:46 44.55389 -92.84967 13225 ft 440 kts 142°
2026-05-05 00:47 44.53144 -92.82007 13747 ft 445 kts 142°
2026-05-05 00:47 44.50874 -92.79027 14482 ft 449 kts 143°
2026-05-05 00:47 44.48578 -92.76022 15177 ft 455 kts 143°
2026-05-05 00:47 44.46369 -92.72793 15843 ft 466 kts 135°
2026-05-05 00:48 44.44494 -92.69036 16473 ft 477 kts 125°
2026-05-05 00:48 44.42798 -92.65020 17092 ft 481 kts 126°
2026-05-05 00:48 44.41084 -92.60976 17669 ft 486 kts 126°
2026-05-05 00:48 44.39343 -92.56894 18196 ft 491 kts 126°
2026-05-05 00:49 44.37588 -92.52792 18717 ft 492 kts 126°
2026-05-05 00:49 44.35816 -92.48675 19257 ft 495 kts 126°
2026-05-05 00:49 44.34035 -92.44552 19769 ft 498 kts 126°
2026-05-05 00:49 44.32238 -92.40399 20259 ft 501 kts 127°
2026-05-05 00:50 44.30431 -92.36214 20726 ft 504 kts 126°
2026-05-05 00:50 44.28615 -92.32001 21182 ft 508 kts 127°
2026-05-05 00:50 44.26788 -92.27770 21629 ft 510 kts 127°
2026-05-05 00:50 44.24950 -92.23521 22063 ft 513 kts 127°
2026-05-05 00:51 44.23099 -92.19251 22480 ft 516 kts 127°
2026-05-05 00:51 44.21237 -92.14967 22871 ft 519 kts 127°
2026-05-05 00:51 44.19360 -92.10655 23218 ft 521 kts 127°
2026-05-05 00:51 44.17477 -92.06331 23565 ft 523 kts 127°
2026-05-05 00:52 44.15586 -92.01990 23893 ft 525 kts 127°
2026-05-05 00:52 44.13712 -91.97698 24179 ft 527 kts 127°
2026-05-05 00:52 44.11803 -91.93331 24494 ft 530 kts 127°
2026-05-05 00:52 44.09881 -91.88939 24811 ft 532 kts 127°
2026-05-05 00:53 44.07953 -91.84545 25085 ft 533 kts 127°
2026-05-05 00:53 44.06014 -91.80135 25371 ft 535 kts 127°
2026-05-05 00:53 44.04072 -91.75727 25759 ft 534 kts 127°
2026-05-05 00:53 44.02132 -91.71328 26155 ft 534 kts 127°
2026-05-05 00:54 44.00190 -91.66939 26494 ft 533 kts 127°
2026-05-05 00:54 43.98247 -91.62555 26888 ft 532 kts 127°
2026-05-05 00:54 43.96308 -91.58180 27268 ft 531 kts 127°
2026-05-05 00:54 43.94376 -91.53819 27663 ft 530 kts 127°
2026-05-05 00:55 43.92458 -91.49529 28043 ft 528 kts 129°
2026-05-05 00:55 43.90272 -91.45494 28414 ft 519 kts 138°
2026-05-05 00:55 43.87797 -91.41893 28778 ft 514 kts 142°
2026-05-05 00:55 43.85281 -91.38377 29157 ft 514 kts 142°
2026-05-05 00:56 43.82768 -91.34856 29515 ft 514 kts 142°
2026-05-05 00:56 43.80258 -91.31337 29800 ft 513 kts 141°
2026-05-05 00:56 43.77745 -91.27816 30090 ft 513 kts 142°
2026-05-05 00:56 43.75240 -91.24312 30405 ft 513 kts 142°
2026-05-05 00:57 43.72733 -91.20809 30730 ft 512 kts 142°
2026-05-05 00:57 43.70229 -91.17312 31070 ft 511 kts 142°
2026-05-05 00:57 43.67725 -91.13817 31409 ft 511 kts 142°
2026-05-05 00:57 43.65233 -91.10341 31762 ft 509 kts 142°
2026-05-05 00:58 43.62734 -91.06864 32107 ft 509 kts 142°
2026-05-05 00:58 43.60242 -91.03405 32407 ft 508 kts 141°
2026-05-05 00:58 43.57748 -90.99947 32729 ft 508 kts 141°
2026-05-05 00:58 43.55256 -90.96503 33046 ft 507 kts 142°
2026-05-05 00:59 43.52765 -90.93062 33362 ft 507 kts 142°
2026-05-05 00:59 43.50273 -90.89620 33679 ft 507 kts 142°
2026-05-05 00:59 43.47788 -90.86188 33950 ft 507 kts 142°
2026-05-05 00:59 43.45296 -90.82755 34203 ft 506 kts 142°
2026-05-05 01:00 43.42805 -90.79331 34452 ft 506 kts 141°
2026-05-05 01:00 43.40317 -90.75913 34630 ft 506 kts 141°
2026-05-05 01:00 43.37826 -90.72493 34712 ft 505 kts 141°
2026-05-05 01:01 43.32869 -90.65692 34728 ft 503 kts 141°
2026-05-05 01:01 43.27910 -90.58915 34720 ft 503 kts 141°
2026-05-05 01:02 43.22951 -90.52156 34726 ft 502 kts 141°
2026-05-05 01:02 43.18832 -90.46554 34727 ft 501 kts 141°
2026-05-05 01:03 43.13886 -90.39838 34646 ft 501 kts 141°
2026-05-05 01:03 43.08942 -90.33137 34722 ft 500 kts 141°
2026-05-05 01:04 43.04004 -90.26452 34724 ft 499 kts 141°
2026-05-05 01:04 42.96582 -90.16460 34723 ft 499 kts 141°
2026-05-05 01:05 42.91637 -90.09822 34723 ft 498 kts 141°
2026-05-05 01:05 42.86687 -90.03199 34731 ft 498 kts 142°
2026-05-05 01:06 42.81172 -89.97822 34744 ft 481 kts 161°
2026-05-05 01:06 42.75010 -89.95049 34740 ft 461 kts 179°
2026-05-05 01:07 42.68742 -89.94762 34743 ft 446 kts 191°
2026-05-05 01:07 42.62536 -89.95199 34743 ft 447 kts 191°
2026-05-05 01:08 42.56316 -89.95599 34677 ft 448 kts 190°
2026-05-05 01:08 42.50083 -89.95992 34700 ft 449 kts 190°
2026-05-05 01:09 42.43847 -89.96412 34726 ft 449 kts 190°
2026-05-05 01:09 42.37604 -89.96823 34701 ft 449 kts 190°
2026-05-05 01:10 42.31356 -89.97215 34712 ft 450 kts 189°
2026-05-05 01:10 42.25102 -89.97611 34723 ft 450 kts 190°
2026-05-05 01:11 42.18838 -89.98022 34715 ft 450 kts 189°
2026-05-05 01:11 42.12576 -89.98432 34762 ft 451 kts 189°
2026-05-05 01:12 42.06352 -89.98840 34781 ft 451 kts 189°
2026-05-05 01:12 42.00083 -89.99240 34788 ft 451 kts 189°
2026-05-05 01:13 41.93803 -89.99642 34742 ft 452 kts 189°
2026-05-05 01:13 41.87512 -90.00052 34681 ft 453 kts 189°
2026-05-05 01:14 41.81216 -90.00453 34725 ft 453 kts 189°
2026-05-05 01:14 41.74918 -90.00852 34720 ft 453 kts 189°
2026-05-05 01:15 41.71838 -90.01457 34723 ft 440 kts 204°
2026-05-05 01:15 41.69143 -90.03099 34726 ft 426 kts 220°
2026-05-05 01:15 41.64679 -90.08143 34729 ft 420 kts 227°
2026-05-05 01:16 41.60343 -90.13398 34971 ft 421 kts 227°
2026-05-05 01:16 41.58174 -90.16027 35232 ft 421 kts 227°
2026-05-05 01:16 41.56001 -90.18655 35470 ft 421 kts 227°
2026-05-05 01:17 41.53832 -90.21290 35674 ft 421 kts 227°
2026-05-05 01:17 41.51668 -90.23926 35892 ft 422 kts 227°
2026-05-05 01:17 41.49502 -90.26561 36111 ft 421 kts 227°
2026-05-05 01:17 41.47336 -90.29196 36268 ft 421 kts 227°
2026-05-05 01:18 41.45171 -90.31826 36471 ft 421 kts 227°
2026-05-05 01:18 41.43006 -90.34454 36630 ft 421 kts 227°
2026-05-05 01:18 41.38669 -90.39710 36655 ft 421 kts 228°
2026-05-05 01:19 41.34324 -90.44920 36625 ft 420 kts 227°
2026-05-05 01:19 41.30010 -90.50105 36686 ft 421 kts 228°
2026-05-05 01:20 41.25669 -90.55327 36389 ft 421 kts 228°
2026-05-05 01:20 41.23542 -90.57991 36741 ft 422 kts 229°
2026-05-05 01:20 41.21382 -90.60624 36712 ft 421 kts 228°
2026-05-05 01:21 41.17040 -90.65838 36748 ft 421 kts 228°
2026-05-05 01:21 41.12845 -90.71210 36722 ft 414 kts 237°
2026-05-05 01:22 41.09388 -90.77300 36746 ft 409 kts 245°
2026-05-05 01:22 41.08265 -90.80691 36762 ft 400 kts 257°
2026-05-05 01:22 41.07500 -90.84179 36766 ft 399 kts 258°
2026-05-05 01:23 41.06005 -90.91262 36771 ft 401 kts 254°
2026-05-05 01:23 41.04684 -90.94549 36750 ft 411 kts 237°
2026-05-05 01:23 41.02592 -90.97181 36738 ft 423 kts 221°
2026-05-05 01:24 40.97567 -91.01359 36697 ft 428 kts 218°
2026-05-05 01:24 40.92481 -91.05456 36672 ft 428 kts 218°
2026-05-05 01:25 40.87373 -91.09554 36637 ft 429 kts 218°
2026-05-05 01:25 40.81893 -91.12850 36638 ft 447 kts 200°
2026-05-05 01:26 40.75801 -91.14457 36614 ft 450 kts 198°
2026-05-05 01:26 40.69536 -91.15390 36611 ft 468 kts 180°
2026-05-05 01:27 40.66327 -91.14386 36627 ft 483 kts 162°
2026-05-05 01:27 40.63373 -91.12205 36631 ft 492 kts 150°
2026-05-05 01:27 40.57746 -91.07048 36621 ft 494 kts 149°
2026-05-05 01:28 40.52130 -91.01823 36622 ft 495 kts 149°
2026-05-05 01:28 40.46495 -90.96616 36581 ft 495 kts 150°
2026-05-05 01:29 40.40823 -90.91425 36618 ft 498 kts 150°
2026-05-05 01:29 40.35119 -90.86229 36631 ft 499 kts 150°
2026-05-05 01:30 40.29455 -90.81064 36640 ft 499 kts 150°
2026-05-05 01:30 40.23746 -90.75874 36595 ft 500 kts 150°
2026-05-05 01:31 40.18052 -90.70701 36641 ft 498 kts 150°
2026-05-05 01:31 40.12348 -90.65530 36646 ft 498 kts 150°
2026-05-05 01:32 40.06659 -90.60378 36664 ft 497 kts 150°
2026-05-05 01:32 40.00968 -90.55246 36643 ft 497 kts 150°
2026-05-05 01:33 39.95236 -90.50092 36663 ft 497 kts 150°
2026-05-05 01:33 39.89582 -90.45016 36683 ft 497 kts 150°
2026-05-05 01:34 39.83893 -90.39908 36687 ft 497 kts 150°
2026-05-05 01:34 39.78203 -90.34815 36675 ft 495 kts 150°
2026-05-05 01:35 39.72528 -90.29749 36684 ft 494 kts 150°
2026-05-05 01:35 39.66859 -90.24691 36688 ft 494 kts 150°
2026-05-05 01:36 39.61197 -90.19649 36692 ft 494 kts 150°
2026-05-05 01:36 39.55525 -90.14616 36654 ft 494 kts 150°
2026-05-05 01:37 39.49841 -90.09586 36665 ft 495 kts 150°
2026-05-05 01:37 39.44141 -90.04557 36675 ft 496 kts 150°
2026-05-05 01:38 39.38449 -89.99525 36698 ft 496 kts 150°
2026-05-05 01:38 39.32718 -89.94464 36682 ft 496 kts 150°
2026-05-05 01:39 39.27015 -89.89448 36682 ft 496 kts 150°
2026-05-05 01:39 39.21297 -89.84437 36688 ft 497 kts 150°
2026-05-05 01:40 39.15574 -89.79429 36689 ft 497 kts 150°
2026-05-05 01:40 39.09844 -89.74425 36670 ft 498 kts 150°
2026-05-05 01:41 39.04098 -89.69412 36682 ft 499 kts 150°
2026-05-05 01:41 38.98342 -89.64399 36687 ft 500 kts 150°
2026-05-05 01:42 38.92384 -89.59924 36686 ft 489 kts 165°
2026-05-05 01:42 38.85954 -89.57076 36703 ft 491 kts 167°
2026-05-05 01:43 38.79474 -89.54272 36703 ft 496 kts 167°
2026-05-05 01:43 38.72928 -89.51447 36714 ft 496 kts 168°
2026-05-05 01:44 38.66300 -89.49165 36715 ft 493 kts 172°
2026-05-05 01:44 38.59661 -89.46764 36705 ft 505 kts 161°
2026-05-05 01:45 38.53317 -89.42732 36725 ft 510 kts 158°
2026-05-05 01:45 38.46980 -89.38602 36742 ft 511 kts 158°
2026-05-05 01:46 38.40637 -89.34476 36739 ft 512 kts 158°
2026-05-05 01:46 38.34275 -89.30380 36743 ft 512 kts 159°
2026-05-05 01:47 38.27914 -89.26292 36742 ft 512 kts 159°
2026-05-05 01:47 38.21550 -89.22201 36795 ft 511 kts 158°
2026-05-05 01:48 38.15203 -89.18132 36757 ft 510 kts 159°
2026-05-05 01:48 38.09933 -89.14771 36754 ft 510 kts 159°
2026-05-05 01:49 38.03590 -89.10719 36760 ft 511 kts 158°
2026-05-05 01:49 37.96207 -89.05999 36794 ft 511 kts 159°
2026-05-05 01:50 37.90875 -89.02608 36776 ft 512 kts 159°
2026-05-05 01:50 37.84492 -88.98528 36792 ft 517 kts 155°
2026-05-05 01:51 37.78695 -88.93036 36794 ft 527 kts 137°
2026-05-05 01:51 37.73782 -88.86190 36794 ft 530 kts 134°
2026-05-05 01:52 37.68856 -88.79273 36803 ft 529 kts 134°
2026-05-05 01:52 37.63914 -88.72372 36814 ft 529 kts 134°
2026-05-05 01:53 37.58975 -88.65483 36819 ft 529 kts 134°
2026-05-05 01:53 37.54044 -88.58587 36821 ft 529 kts 134°
2026-05-05 01:54 37.49111 -88.51696 36822 ft 529 kts 134°
2026-05-05 01:54 37.44169 -88.44819 36818 ft 529 kts 134°
2026-05-05 01:55 37.39220 -88.37964 36838 ft 529 kts 134°
2026-05-05 01:55 37.34273 -88.31121 36846 ft 528 kts 134°
2026-05-05 01:56 37.29329 -88.24280 36841 ft 528 kts 134°
2026-05-05 01:56 37.24387 -88.17455 36839 ft 528 kts 134°
2026-05-05 01:57 37.19431 -88.10641 36805 ft 529 kts 134°
2026-05-05 01:57 37.14466 -88.03830 36835 ft 529 kts 134°
2026-05-05 01:58 37.09499 -87.97021 36853 ft 529 kts 134°
2026-05-05 01:58 37.04538 -87.90233 36857 ft 528 kts 135°
2026-05-05 01:59 36.99571 -87.83462 36866 ft 528 kts 135°
2026-05-05 01:59 36.94598 -87.76695 36834 ft 528 kts 135°
2026-05-05 02:00 36.89614 -87.69924 36866 ft 530 kts 135°
2026-05-05 02:00 36.84624 -87.63152 36892 ft 529 kts 135°
2026-05-05 02:01 36.79638 -87.56397 36900 ft 529 kts 135°
2026-05-05 02:01 36.74649 -87.49645 36892 ft 529 kts 135°
2026-05-05 02:02 36.69651 -87.42928 36842 ft 529 kts 135°
2026-05-05 02:02 36.64637 -87.36203 36870 ft 530 kts 135°
2026-05-05 02:03 36.59610 -87.29464 36913 ft 530 kts 135°
2026-05-05 02:03 36.54599 -87.22750 36932 ft 529 kts 135°
2026-05-05 02:04 36.49596 -87.16059 36946 ft 527 kts 135°
2026-05-05 02:04 36.44590 -87.09376 36899 ft 528 kts 135°
2026-05-05 02:05 36.39575 -87.02697 36903 ft 529 kts 135°
2026-05-05 02:05 36.34546 -86.96015 36906 ft 531 kts 135°
2026-05-05 02:06 36.29506 -86.89342 36947 ft 529 kts 135°
2026-05-05 02:06 36.24477 -86.82691 36946 ft 528 kts 135°
2026-05-05 02:07 36.19454 -86.76057 36934 ft 527 kts 135°
2026-05-05 02:07 36.14324 -86.69595 36934 ft 525 kts 143°
2026-05-05 02:08 36.08315 -86.64684 36940 ft 519 kts 155°
2026-05-05 02:08 36.02028 -86.60275 36961 ft 520 kts 154°
2026-05-05 02:09 35.95749 -86.55840 36989 ft 520 kts 154°
2026-05-05 02:09 35.89483 -86.51423 36972 ft 518 kts 154°
2026-05-05 02:10 35.83228 -86.47031 37001 ft 516 kts 154°
2026-05-05 02:10 35.76985 -86.42672 36992 ft 515 kts 154°
2026-05-05 02:11 35.70759 -86.38324 36989 ft 515 kts 154°
2026-05-05 02:11 35.64548 -86.33919 36947 ft 516 kts 154°
2026-05-05 02:12 35.55215 -86.27281 36950 ft 517 kts 154°
2026-05-05 02:13 35.48980 -86.22871 36975 ft 518 kts 154°
2026-05-05 02:13 35.42770 -86.18349 36955 ft 521 kts 148°
2026-05-05 02:14 35.37076 -86.12911 36963 ft 523 kts 144°
2026-05-05 02:14 35.34222 -86.10139 36700 ft 521 kts 144°
2026-05-05 02:14 35.31387 -86.07389 36453 ft 519 kts 144°
2026-05-05 02:14 35.28554 -86.04644 36198 ft 517 kts 144°
2026-05-05 02:15 35.25739 -86.01914 35942 ft 516 kts 144°
2026-05-05 02:15 35.22929 -85.99200 35702 ft 514 kts 144°
2026-05-05 02:15 35.20120 -85.96505 35456 ft 512 kts 144°
2026-05-05 02:15 35.17316 -85.93824 35188 ft 511 kts 144°
2026-05-05 02:16 35.14512 -85.91154 34937 ft 512 kts 144°
2026-05-05 02:16 35.11703 -85.88481 34698 ft 511 kts 144°
2026-05-05 02:16 35.08902 -85.85812 34468 ft 510 kts 144°
2026-05-05 02:16 35.06113 -85.83155 34233 ft 508 kts 144°
2026-05-05 02:17 35.03329 -85.80511 33996 ft 506 kts 144°
2026-05-05 02:17 35.00554 -85.77881 33732 ft 505 kts 144°
2026-05-05 02:17 34.97786 -85.75255 33133 ft 503 kts 144°
2026-05-05 02:17 34.95034 -85.72638 32456 ft 501 kts 144°
2026-05-05 02:18 34.92293 -85.70029 31784 ft 499 kts 144°
2026-05-05 02:18 34.89561 -85.67428 31061 ft 498 kts 144°
2026-05-05 02:18 34.86834 -85.64831 30359 ft 497 kts 144°
2026-05-05 02:18 34.84123 -85.62253 29669 ft 494 kts 144°
2026-05-05 02:19 34.81416 -85.59689 28837 ft 492 kts 144°
2026-05-05 02:19 34.78749 -85.57169 27981 ft 492 kts 144°
2026-05-05 02:19 34.76044 -85.54620 27096 ft 492 kts 144°
2026-05-05 02:19 34.73336 -85.52068 26187 ft 492 kts 144°
2026-05-05 02:20 34.70629 -85.49513 25276 ft 493 kts 144°
2026-05-05 02:20 34.67919 -85.46962 24488 ft 493 kts 144°
2026-05-05 02:20 34.65198 -85.44404 24177 ft 495 kts 144°
2026-05-05 02:20 34.62474 -85.41840 23978 ft 496 kts 144°
2026-05-05 02:21 34.59754 -85.39278 24005 ft 496 kts 144°
2026-05-05 02:21 34.57030 -85.36710 24007 ft 496 kts 144°
2026-05-05 02:21 34.54304 -85.34142 24008 ft 496 kts 144°
2026-05-05 02:21 34.51577 -85.31575 23966 ft 496 kts 144°
2026-05-05 02:22 34.48858 -85.29020 22937 ft 493 kts 144°
2026-05-05 02:22 34.46178 -85.26500 22024 ft 483 kts 144°
2026-05-05 02:22 34.43544 -85.24032 21243 ft 477 kts 144°
2026-05-05 02:22 34.40959 -85.21618 20482 ft 472 kts 144°
2026-05-05 02:23 34.38369 -85.19201 19717 ft 468 kts 144°
2026-05-05 02:23 34.35801 -85.16805 18928 ft 464 kts 144°
2026-05-05 02:23 34.33254 -85.14429 18234 ft 459 kts 144°
2026-05-05 02:23 34.30741 -85.12090 17399 ft 455 kts 144°
2026-05-05 02:24 34.28255 -85.09776 16747 ft 447 kts 144°
2026-05-05 02:24 34.25802 -85.07493 16053 ft 441 kts 144°
2026-05-05 02:24 34.23375 -85.05238 15317 ft 437 kts 145°
2026-05-05 02:24 34.20981 -85.03018 14694 ft 431 kts 144°
2026-05-05 02:25 34.18619 -85.00827 14086 ft 425 kts 144°
2026-05-05 02:25 34.16294 -84.98669 13456 ft 419 kts 144°
2026-05-05 02:25 34.13992 -84.96528 13068 ft 416 kts 144°
2026-05-05 02:25 34.11711 -84.94388 12966 ft 415 kts 144°
2026-05-05 02:26 34.09436 -84.92237 12996 ft 416 kts 144°
2026-05-05 02:26 34.07173 -84.90087 12989 ft 416 kts 143°
2026-05-05 02:26 34.04894 -84.87918 12999 ft 416 kts 143°
2026-05-05 02:26 34.02637 -84.85772 12928 ft 406 kts 143°
2026-05-05 02:27 34.00465 -84.83710 12778 ft 389 kts 144°
2026-05-05 02:27 33.98380 -84.81737 12645 ft 373 kts 144°
2026-05-05 02:27 33.96379 -84.79847 12521 ft 358 kts 144°
2026-05-05 02:27 33.94455 -84.78028 12392 ft 344 kts 144°
2026-05-05 02:28 33.92605 -84.76282 12263 ft 332 kts 144°
2026-05-05 02:28 33.90842 -84.74623 12131 ft 320 kts 144°
2026-05-05 02:28 33.89092 -84.72983 12000 ft 309 kts 144°
2026-05-05 02:28 33.87434 -84.71431 11997 ft 305 kts 144°
2026-05-05 02:29 33.85758 -84.69864 11981 ft 305 kts 144°
2026-05-05 02:29 33.84087 -84.68300 11996 ft 305 kts 144°
2026-05-05 02:29 33.82416 -84.66732 11995 ft 304 kts 144°
2026-05-05 02:29 33.80747 -84.65167 11999 ft 304 kts 144°
2026-05-05 02:30 33.79082 -84.63602 11997 ft 301 kts 144°
2026-05-05 02:30 33.77484 -84.62094 11987 ft 282 kts 144°
2026-05-05 02:30 33.75974 -84.60668 12000 ft 269 kts 144°
2026-05-05 02:30 33.74572 -84.59268 12011 ft 260 kts 136°
2026-05-05 02:31 33.73597 -84.57447 12003 ft 262 kts 112°
2026-05-05 02:31 33.73275 -84.55290 12007 ft 265 kts 91°
2026-05-05 02:31 33.73282 -84.53071 12007 ft 265 kts 91°
2026-05-05 02:31 33.73290 -84.50858 12008 ft 265 kts 91°
2026-05-05 02:32 33.73297 -84.48637 12010 ft 265 kts 91°
2026-05-05 02:32 33.73299 -84.46425 12009 ft 265 kts 91°
2026-05-05 02:32 33.73297 -84.44209 12010 ft 265 kts 91°
2026-05-05 02:32 33.73296 -84.41993 12009 ft 265 kts 91°
2026-05-05 02:33 33.73295 -84.40527 12009 ft 265 kts 91°
2026-05-05 02:33 33.73294 -84.38310 12009 ft 265 kts 91°
2026-05-05 02:33 33.73294 -84.35396 11732 ft 262 kts 91°
2026-05-05 02:33 33.73293 -84.33920 11466 ft 262 kts 91°
2026-05-05 02:34 33.73291 -84.31036 10969 ft 260 kts 91°
2026-05-05 02:34 33.73289 -84.28875 10597 ft 258 kts 91°
2026-05-05 02:34 33.73290 -84.27421 10359 ft 257 kts 91°
2026-05-05 02:34 33.73292 -84.25296 9879 ft 253 kts 91°
2026-05-05 02:35 33.73294 -84.23185 9308 ft 252 kts 91°
2026-05-05 02:35 33.73297 -84.21120 8759 ft 249 kts 91°
2026-05-05 02:35 33.73299 -84.19048 8218 ft 247 kts 92°
2026-05-05 02:35 33.73298 -84.17002 7652 ft 244 kts 92°
2026-05-05 02:36 33.73299 -84.14974 7082 ft 242 kts 92°
2026-05-05 02:36 33.73297 -84.12968 6527 ft 239 kts 94°
2026-05-05 02:36 33.72899 -84.11090 6069 ft 231 kts 124°
2026-05-05 02:36 33.71763 -84.09817 5721 ft 221 kts 158°
2026-05-05 02:37 33.70273 -84.09542 5349 ft 214 kts 191°
2026-05-05 02:37 33.68990 -84.10315 4989 ft 212 kts 224°
2026-05-05 02:37 33.68197 -84.11805 4629 ft 214 kts 242°
2026-05-05 02:37 33.67588 -84.13439 4242 ft 214 kts 244°
2026-05-05 02:38 33.67005 -84.15074 4016 ft 213 kts 244°
2026-05-05 02:38 33.66426 -84.16711 4010 ft 214 kts 244°
2026-05-05 02:38 33.65849 -84.18354 4024 ft 214 kts 244°
2026-05-05 02:38 33.65300 -84.19923 4018 ft 191 kts 244°
2026-05-05 02:39 33.64942 -84.21363 3987 ft 173 kts 263°
2026-05-05 02:39 33.64940 -84.22757 3879 ft 163 kts 265°
2026-05-05 02:39 33.64942 -84.24105 3705 ft 160 kts 265°
2026-05-05 02:39 33.64943 -84.25416 3514 ft 158 kts 265°
2026-05-05 02:40 33.64945 -84.26732 3318 ft 156 kts 265°
2026-05-05 02:40 33.64947 -84.27988 3114 ft 147 kts 264°
2026-05-05 02:40 33.64948 -84.29203 2927 ft 144 kts 264°
2026-05-05 02:40 33.64949 -84.30404 2737 ft 144 kts 264°
2026-05-05 02:41 33.64950 -84.31601 2546 ft 143 kts 264°
2026-05-05 02:41 33.64950 -84.32798 2361 ft 143 kts 264°
2026-05-05 02:41 33.64952 -84.33990 2175 ft 142 kts 264°
2026-05-05 02:41 33.64952 -84.35172 1991 ft 141 kts 264°
2026-05-05 02:42 33.64952 -84.36347 1803 ft 141 kts 264°
2026-05-05 02:42 33.64953 -84.37528 1632 ft 141 kts 267°
2026-05-05 02:42 33.64954 -84.38722 1424 ft 144 kts 268°
2026-05-05 02:42 33.64960 -84.39925 1255 ft 144 kts 269°
2026-05-05 02:43 33.64957 -84.41129 1051 ft 143 kts 268°
2026-05-05 02:43 33.64952 -84.42201 1036 ft 104 kts 270°
2026-05-05 02:43 33.64949 -84.42852 1035 ft 53 kts 269°
2026-05-05 02:43 33.64934 -84.43147 1036 ft 29 kts 256°
2026-05-05 02:44 33.64857 -84.43329 1035 ft 19 kts 239°
2026-05-05 02:44 33.64841 -84.43479 1036 ft 17 kts 264°
2026-05-05 02:44 33.64769 -84.43569 1036 ft 15 kts 210°
2026-05-05 02:44 33.64677 -84.43630 1035 ft 15 kts 210°
2026-05-05 02:45 33.64588 -84.43693 1035 ft 15 kts 212°
2026-05-05 02:45 33.64530 -84.43784 1035 ft 14 kts 256°
2026-05-05 02:45 33.64517 -84.43857 1035 ft 6 kts 258°
2026-05-05 02:45 33.64511 -84.43921 1035 ft 11 kts 263°
2026-05-05 02:46 33.64487 -84.44028 1035 ft 16 kts 223°
2026-05-05 02:46 33.64394 -84.44053 1035 ft 2 kts 182°
2026-05-05 02:46 33.64374 -84.44052 1035 ft 5 kts 178°
2026-05-05 02:46 33.64333 -84.44041 1035 ft 4 kts 139°
2026-05-05 02:47 33.64332 -84.44020 1035 ft 2 kts 90°
2026-05-05 02:47 33.64332 -84.44005 1035 ft 3 kts 90°
2026-05-05 02:47 33.64332 -84.43982 1035 ft 3 kts 90°
2026-05-05 02:47 33.64332 -84.43972 1035 ft 0 kts 89°